This demonstration page uses our WeatherBlox Daily Observations layout. Learn more.

41.55636, -103.73856

Hourly Observations for April 24, 2015

Temp ( °F °C ) Dew Point ( °F °C ) Humidity (%) Winds ( mph kmh ) Pressure ( in mb ) Visibility ( mi km ) Precip ( " mm )
12:53 am 00:53 Clear 54 12 N/A N/A SW 9 15 29.62 1003 10 16.0934 0 0
1:53 am 01:53 Clear 54 12 N/A N/A SW 9 15 29.6 1002 10 16.0934 0 0
2:53 am 02:53 Clear 48 9 N/A N/A WNW 7 11 29.61 1003 10 16.0934 0 0
3:53 am 03:53 Clear 45 7 N/A N/A NNW 3 6 29.6 1002 10 16.0934 0 0
4:53 am 04:53 Clear 43 6 N/A N/A N 6 9 29.6 1003 10 16.0934 0 0
5:53 am 05:53 Clear 39 4 N/A N/A ENE 3 6 29.62 1003 10 16.0934 0 0
6:53 am 06:53 Sunny 43 6 N/A N/A NW 5 7 29.62 1003 10 16.0934 0 0
7:53 am 07:53 Sunny 51 10.6 37 2.8 59 59 Calm 29.61 1003 10 16.0934 0 0
8:53 am 08:53 Sunny 54 12.2 37 2.8 53 53 Calm 29.6 1003 10 16.0934 0 0
9:53 am 09:53 Sunny 61 16.1 38 3.3 43 43 WNW 12 19 29.57 1001 10 16.0934 0 0
10:53 am 10:53 Sunny 64 17.8 38 3.3 38 38 W 7 11 29.55 1001 10 16.0934 0 0
11:53 am 11:53 Sunny 68 20 37 2.8 32 32 W 7 11 29.53 1000 10 16.0934 0 0
12:53 pm 12:53 Sunny 69 20.6 37 2.8 31 31 WNW 8 13 29.5 999 10 16.0934 0 0
1:53 pm 13:53 Mostly Sunny 71 21.7 36 2.2 28 28 NW 8 13 29.46 998 10 16.0934 0 0
2:53 pm 14:53 Mostly Cloudy 69 20.6 36 2.2 30 30 WNW 9 15 29.46 998 10 16.0934 0 0
3:44 pm 15:44 Partly Cloudy with Nearby Thunderstorms 72 22 34 1 25 25 WNW 5 7 29.29 992 10 16.0934 0 0
3:53 pm 15:53 Partly Cloudy 71 21.7 35 1.7 27 27 NNW 8 13 29.45 997 10 16.0934 0 0.0254
4:53 pm 16:53 Partly Cloudy with Thunderstorms 67 19.4 39 3.9 36 36 NNE 16 26 29.47 998 10 16.0934 0 0.0254
5:12 pm 17:12 Sunny with Nearby Thunderstorms 64 18 39 4 40 40 NE 17 28 29.38 995 10 16.0934 0 0
5:53 pm 17:53 Cloudy 61 16.1 37 2.8 41 41 SSE 16 26 29.53 1000 10 16.0934 0 0
6:01 pm 18:01 Cloudy with Nearby Thunderstorms 60 15.6 38 3.3 44 44 S 20 31 29.47 998 10 16.0934 0 0
6:27 pm 18:27 Cloudy 59 15 39 3.9 48 48 SW 20 31 29.47 998 10 16.0934 0 0
6:53 pm 18:53 Cloudy with Light Rain 57 13.9 42 5.6 58 58 SW 20 31 29.56 1001 10 16.0934 0 0.0254
7:53 pm 19:53 Partly Cloudy 53 11.7 44 6.7 72 72 WNW 3 6 29.54 1001 10 16.0934 0 0.0254
8:53 pm 20:53 Partly Cloudy 51 10.6 44 6.7 77 77 Calm 29.54 1000 10 16.0934 0 0
9:53 pm 21:53 Clear 50 10 43 6.1 77 77 N 7 11 29.54 1000 10 16.0934 0 0
10:53 pm 22:53 Clear 49 9.4 42 5.6 77 77 WSW 8 13 29.55 1001 10 16.0934 0 0
11:53 pm 23:53 Clear 48 8.9 42 5.6 80 80 NW 5 7 29.55 1001 10 16.0934 0 0

Powered by AerisWeather